W4SNA-2 Weather Reports


Display with metric or nautical units.
time (UTC)temp
F
wind
direction
speed
MPH
gust
MPH
rain 1hr
in
rain 24hr
in
rain mn
in
humidity
%
barometer
mb
20260509051227 55 194 6.0 21.0 0.00 0.00 0.00 69 1016.0
20260509050725 55 199 11.0 22.0 0.00 0.00 0.00 68 1015.8
20260509050228 55 199 12.0 25.0 0.00 0.00 0.00 68 1015.7
20260509045727 55 199 12.0 25.0 0.00 0.00 0.00 67 1015.9
20260509045227 56 201 12.0 20.0 0.00 0.00 0.00 66 1015.9
20260509044725 56 201 9.0 21.0 0.00 0.00 0.00 66 1015.9
20260509044226 56 199 13.0 21.0 0.00 0.00 0.00 66 1016.0
20260509043725 56 195 7.0 19.0 0.00 0.00 0.00 67 1015.9
20260509043229 56 201 9.0 18.0 0.00 0.00 0.00 68 1016.0
20260509042725 56 195 9.0 17.0 0.00 0.00 0.00 68 1015.9
20260509042227 56 198 7.0 13.0 0.00 0.00 0.00 68 1016.0
20260509041725 55 202 6.0 14.0 0.00 0.00 0.00 67 1016.1
20260509041226 55 197 8.0 14.0 0.00 0.00 0.00 66 1015.1
20260509040726 56 198 8.0 15.0 0.00 0.00 0.00 65 1015.2
20260509040226 56 198 5.0 15.0 0.00 0.00 0.00 64 1015.3
20260509035542 56 200 14.0 27.0 0.00 0.00 0.00 63 1015.3
20260509035042 56 199 12.0 27.0 0.00 0.00 0.00 62 1015.4
20260509034542 56 199 12.0 24.0 0.00 0.00 0.00 62 1015.3
20260509033933 56 199 12.0 22.0 0.00 0.00 0.00 61 1015.4
20260509033433 56 200 12.0 24.0 0.00 0.00 0.00 61 1015.4
20260509032933 56 194 13.0 24.0 0.00 0.00 0.00 61 1015.4
20260509032433 56 201 11.0 24.0 0.00 0.00 0.00 60 1015.4
20260509031933 56 201 15.0 25.0 0.00 0.00 0.00 61 1015.4
20260509031433 56 200 16.0 25.0 0.00 0.00 0.00 60 1015.5
20260509030933 56 192 9.0 27.0 0.00 0.00 0.00 61 1015.5
20260509030433 56 195 12.0 27.0 0.00 0.00 0.00 60 1015.5
20260509025933 56 196 9.0 25.0 0.00 0.00 0.00 60 1015.5
20260509025434 56 189 9.0 20.0 0.00 0.00 0.00 59 1015.6
20260509024933 56 190 4.0 22.0 0.00 0.00 0.00 59 1015.6
20260509024433 56 195 8.0 24.0 0.00 0.00 0.00 59 1015.5
20260509023933 57 191 10.0 24.0 0.00 0.00 0.00 57 1015.6
20260509023433 57 195 12.0 24.0 0.00 0.00 0.00 57 1015.6
20260509022933 57 192 11.0 22.0 0.00 0.00 0.00 57 1015.7
20260509022433 57 194 10.0 22.0 0.00 0.00 0.00 56 1015.6
20260509021933 57 186 8.0 17.0 0.00 0.00 0.00 55 1015.6
20260509021433 57 188 7.0 17.0 0.00 0.00 0.00 54 1015.7
20260509020933 57 196 7.0 12.0 0.00 0.00 0.00 54 1015.7
20260509020022 57 199 8.0 14.0 0.00 0.00 0.00 52 1015.9
20260509015524 57 188 6.0 21.0 0.00 0.00 0.00 54 1015.9
20260509015021 57 191 11.0 22.0 0.00 0.00 0.00 52 1015.8
20260509014521 57 190 11.0 22.0 0.00 0.00 0.00 52 1015.8
20260509014022 57 183 4.0 13.0 0.00 0.00 0.00 53 1015.9
20260509013524 57 190 5.0 13.0 0.00 0.00 0.00 52 1015.8
20260509013021 58 186 5.0 11.0 0.00 0.00 0.00 51 1015.7
20260509012523 58 183 3.0 10.0 0.00 0.00 0.00 50 1015.7
20260509012021 58 198 6.0 10.0 0.00 0.00 0.00 49 1015.8
20260509011524 58 195 5.0 9.0 0.00 0.00 0.00 49 1015.8
20260509010738 58 196 3.0 9.0 0.00 0.00 0.00 49 1015.7
20260509010241 58 199 4.0 9.0 0.00 0.00 0.00 48 1015.6
20260509005739 58 199 4.0 10.0 0.00 0.00 0.00 49 1015.6
20260509005238 58 202 5.0 10.0 0.00 0.00 0.00 48 1015.7
20260509004739 58 196 5.0 9.0 0.00 0.00 0.00 48 1015.6
20260509004238 58 198 5.0 9.0 0.00 0.00 0.00 49 1015.5
20260509003739 58 196 5.0 13.0 0.00 0.00 0.00 49 1015.6
20260509003241 58 195 3.0 13.0 0.00 0.00 0.00 50 1015.5
20260509002738 58 195 3.0 12.0 0.00 0.00 0.00 49 1015.5
20260509002239 58 196 4.0 12.0 0.00 0.00 0.00 49 1015.4
20260509001740 58 195 3.0 9.0 0.00 0.00 0.00 49 1015.4
20260509001238 58 195 4.0 9.0 0.00 0.00 0.00 48 1015.3
20260509000738 58 196 4.0 8.0 0.00 0.00 0.00 48 1015.4
20260509000241 58 195 3.0 9.0 0.00 0.00 0.00 48 1015.3
20260508235738 58 194 4.0 9.0 0.00 0.00 0.00 48 1015.3
20260508235212 59 192 4.0 9.0 0.00 0.00 0.00 47 1015.3
20260508234712 59 192 3.0 9.0 0.00 0.00 0.00 48 1015.3
20260508234212 59 196 2.0 9.0 0.00 0.00 0.00 47 1015.3
20260508233712 59 194 5.0 9.0 0.00 0.00 0.00 46 1015.4
20260508233212 59 195 2.0 8.0 0.00 0.00 0.00 47 1015.5
20260508232712 59 194 3.0 8.0 0.00 0.00 0.00 47 1015.6
20260508232212 59 194 3.0 9.0 0.00 0.00 0.00 47 1015.6
20260508231712 59 195 3.0 9.0 0.00 0.00 0.00 45 1015.5
20260508231212 59 196 3.0 9.0 0.00 0.00 0.00 45 1015.5
20260508230712 59 196 3.0 9.0 0.00 0.00 0.00 44 1015.5
20260508230212 59 195 4.0 9.0 0.00 0.00 0.00 45 1015.4
20260508225219 59 191 6.0 10.0 0.00 0.00 0.00 45 1015.3
20260508224723 59 198 3.0 10.0 0.00 0.00 0.00 46 1015.3
20260508224219 60 192 5.0 10.0 0.00 0.00 0.00 44 1015.3
20260508223719 60 197 3.0 13.0 0.00 0.00 0.00 45 1015.3
20260508223219 60 196 3.0 13.0 0.00 0.00 0.00 44 1015.3
20260508222719 60 201 5.0 10.0 0.00 0.00 0.00 44 1015.3
20260508222219 60 187 3.0 10.0 0.00 0.00 0.00 45 1015.2
20260508221719 60 195 6.0 10.0 0.00 0.00 0.00 45 1015.1
20260508221219 60 187 2.0 8.0 0.00 0.00 0.00 45 1015.1
20260508220720 61 192 2.0 8.0 0.00 0.00 0.00 48 1015.1
20260508220220 61 194 2.0 9.0 0.00 0.00 0.00 44 1015.1
20260508215720 61 194 4.0 10.0 0.00 0.00 0.00 45 1015.1
20260508215219 61 196 3.0 10.0 0.00 0.00 0.00 44 1015.3
20260508214719 61 196 2.0 8.0 0.00 0.00 0.00 43 1015.3
20260508214219 61 194 3.0 8.0 0.00 0.00 0.00 42 1015.4
20260508213719 62 189 2.0 6.0 0.00 0.00 0.00 41 1015.4
20260508213219 62 190 2.0 6.0 0.00 0.00 0.00 41 1015.3
20260508212338 62 191 3.0 9.0 0.00 0.00 0.00 41 1015.2
20260508211838 62 193 3.0 9.0 0.00 0.00 0.00 41 1015.1
20260508211338 62 193 2.0 8.0 0.00 0.00 0.00 40 1015.4
20260508210718 63 206 3.0 10.0 0.00 0.00 0.00 42 1015.6
20260508205717 63 187 5.0 11.0 0.00 0.00 0.00 38 1015.6
20260508205217 63 188 4.0 9.0 0.00 0.00 0.00 40 1015.6
20260508204717 63 192 2.0 8.0 0.00 0.00 0.00 42 1015.7
20260508204217 63 192 2.0 12.0 0.00 0.00 0.00 37 1016.0
20260508203717 63 183 4.0 12.0 0.00 0.00 0.00 39 1016.2
20260508203004 64 178 2.0 10.0 0.00 0.00 0.00 40 1016.2
20260508202504 64 178 3.0 10.0 0.00 0.00 0.00 41 1016.2
20260508202004 63 179 3.0 15.0 0.00 0.00 0.00 41 1016.2
20260508201504 64 182 5.0 15.0 0.00 0.00 0.00 40 1016.1
20260508201004 64 187 5.0 13.0 0.00 0.00 0.00 40 1016.3
20260508200504 64 189 5.0 9.0 0.00 0.00 0.00 40 1016.3
20260508195845 65 192 3.0 13.0 0.00 0.00 0.00 37 1016.3
20260508195346 65 182 3.0 12.0 0.00 0.00 0.00 42 1016.2
20260508194847 65 183 4.0 12.0 0.00 0.00 0.00 39 1016.3
20260508194345 64 184 6.0 12.0 0.00 0.01 0.00 39 1016.3
20260508193845 64 187 4.0 12.0 0.00 0.04 0.00 40 1016.5
20260508193345 64 181 2.0 10.0 0.00 0.04 0.00 43 1016.5
20260508192845 63 183 4.0 10.0 0.00 0.04 0.00 42 1016.7
20260508192345 63 192 4.0 9.0 0.00 0.04 0.00 41 1016.8
20260508191847 63 200 3.0 13.0 0.00 0.04 0.00 38 1016.9
20260508191345 65 181 6.0 13.0 0.00 0.04 0.00 38 1016.9
20260508190845 64 181 2.0 11.0 0.00 0.04 0.00 41 1017.0
20260508190345 63 170 2.0 11.0 0.00 0.04 0.00 40 1017.0
20260508185845 64 173 5.0 11.0 0.00 0.04 0.00 37 1017.0
20260508185345 65 174 4.0 10.0 0.00 0.05 0.00 41 1017.0
20260508184845 64 175 6.0 10.0 0.00 0.05 0.00 40 1017.0
20260508184345 64 184 4.0 9.0 0.00 0.05 0.00 40 1017.2
20260508183845 64 184 5.0 10.0 0.00 0.05 0.00 40 1017.2
20260508183345 63 173 4.0 11.0 0.00 0.05 0.00 41 1017.1
20260508182845 64 184 6.0 11.0 0.00 0.05 0.00 40 1017.2
20260508182345 64 194 6.0 9.0 0.00 0.05 0.00 37 1017.3
20260508181544 63 188 4.0 9.0 0.00 0.05 0.00 37 1017.5
20260508181044 63 177 3.0 9.0 0.00 0.05 0.00 42 1017.5
20260508180545 64 171 4.0 9.0 0.00 0.05 0.00 44 1017.7
20260508175820 63 164 2.0 10.0 0.00 0.05 0.00 45 1017.8
20260508175318 63 167 7.0 10.0 0.00 0.05 0.00 39 1017.8
20260508174818 64 189 2.0 9.0 0.00 0.05 0.00 39 1017.9
20260508174317 65 189 3.0 7.0 0.00 0.05 0.00 42 1017.9
20260508173818 64 174 2.0 7.0 0.00 0.05 0.00 49 1017.9
20260508173318 63 175 2.0 8.0 0.00 0.05 0.00 43 1017.9
20260508172821 64 172 4.0 9.0 0.00 0.05 0.00 42 1018.0
20260508172319 63 166 3.0 9.0 0.00 0.05 0.00 46 1018.0
20260508171819 64 166 3.0 6.0 0.00 0.07 0.00 39 1018.2
20260508171317 63 166 2.0 8.0 0.00 0.07 0.00 44 1018.2
20260508170817 63 166 3.0 8.0 0.00 0.07 0.00 41 1018.2
20260508170317 63 165 1.0 7.0 0.00 0.07 0.00 43 1018.3
20260508165823 62 0 0.0 6.0 0.00 0.07 0.00 45 1018.3
20260508165317 61 165 1.0 11.0 0.00 0.07 0.00 43 1018.4
20260508164818 61 166 4.0 11.0 0.00 0.07 0.00 37 1018.6
20260508164317 62 165 3.0 10.0 0.00 0.07 0.00 39 1018.7
20260508163818 63 170 4.0 9.0 0.00 0.07 0.00 45 1018.7
20260508163318 62 176 3.0 8.0 0.00 0.07 0.00 43 1018.7
20260508162820 61 0 0.0 7.0 0.00 0.07 0.00 48 1018.9
20260508162318 61 174 2.0 11.0 0.00 0.07 0.00 43 1018.9
20260508161819 61 172 3.0 11.0 0.00 0.07 0.00 44 1019.1
20260508161317 62 177 1.0 6.0 0.00 0.07 0.00 46 1019.2
20260508160818 62 0 0.0 7.0 0.00 0.07 0.00 48 1019.2
20260508160317 62 180 1.0 7.0 0.00 0.07 0.07 43 1019.3
20260508155822 62 0 0.0 2.0 0.00 0.07 0.07 51 1019.4
20260508155317 60 0 0.0 6.0 0.00 0.07 0.07 50 1019.4
20260508154819 60 0 0.0 6.0 0.00 0.07 0.07 49 1019.4
20260508154317 60 0 0.0 6.0 0.00 0.07 0.07 45 1019.5
20260508153818 59 0 0.0 6.0 0.00 0.07 0.07 44 1019.5
20260508153318 60 0 0.0 5.0 0.00 0.07 0.07 45 1019.5
20260508152821 60 0 0.0 5.0 0.00 0.07 0.07 46 1019.6
20260508152317 60 0 0.0 9.0 0.00 0.07 0.07 50 1019.6
20260508151818 60 324 2.0 9.0 0.00 0.07 0.07 46 1019.6
20260508151317 59 0 0.0 6.0 0.00 0.07 0.07 50 1019.6
20260508150817 58 0 0.0 4.0 0.00 0.07 0.07 41 1019.6
20260508150317 59 0 0.0 4.0 0.00 0.07 0.07 47 1019.6
20260508145819 59 0 0.0 4.0 0.00 0.07 0.07 50 1019.7
20260508145317 59 0 0.0 4.0 0.00 0.07 0.07 49 1019.8
20260508144818 59 0 0.0 0.0 0.00 0.07 0.07 52 1019.7
20260508144317 58 0 0.0 0.0 0.00 0.07 0.07 48 1019.7
20260508143817 57 0 0.0 0.0 0.00 0.07 0.07 45 1019.6
20260508143317 56 0 0.0 10.0 0.00 0.07 0.07 48 1019.7
20260508142819 56 0 0.0 10.0 0.00 0.07 0.07 52 1019.7
20260508142317 56 0 0.0 0.0 0.00 0.07 0.07 53 1019.6
20260508141818 55 0 0.0 4.0 0.00 0.07 0.07 51 1019.5
20260508141317 55 0 0.0 4.0 0.00 0.07 0.07 55 1019.4
20260508140818 55 0 0.0 3.0 0.00 0.07 0.07 54 1019.4
20260508140317 54 0 0.0 4.0 0.00 0.07 0.07 54 1019.4
20260508135818 54 0 0.0 5.0 0.00 0.07 0.07 56 1019.4
20260508135317 54 327 1.0 5.0 0.00 0.07 0.07 52 1019.4
20260508134818 54 0 0.0 10.0 0.00 0.07 0.07 54 1019.3
20260508134317 53 0 0.0 10.0 0.00 0.07 0.07 53 1019.3
20260508133817 53 327 1.0 6.0 0.00 0.07 0.07 52 1019.3
20260508133318 53 0 0.0 6.0 0.00 0.07 0.07 56 1019.2
20260508132823 53 327 1.0 6.0 0.00 0.07 0.07 53 1019.2
20260508132317 53 0 0.0 4.0 0.00 0.07 0.07 53 1019.1
20260508131818 52 0 0.0 5.0 0.00 0.07 0.07 54 1019.0
20260508131318 52 0 0.0 5.0 0.00 0.07 0.07 52 1019.0
20260508130817 52 0 0.0 4.0 0.00 0.07 0.07 57 1019.0
20260508130318 52 0 0.0 5.0 0.00 0.07 0.07 59 1019.0
20260508125825 51 327 1.0 6.0 0.00 0.07 0.07 57 1018.9
20260508125318 51 0 0.0 6.0 0.00 0.07 0.07 59 1018.9
20260508124819 51 327 2.0 5.0 0.00 0.07 0.07 61 1018.8
20260508123610 50 0 0.0 4.0 0.00 0.07 0.07 60 1018.7
20260508123107 50 0 0.0 3.0 0.00 0.07 0.07 63 1018.8
20260508122606 49 0 0.0 5.0 0.00 0.07 0.07 64 1018.7
20260508122107 49 328 2.0 5.0 0.00 0.08 0.07 62 1018.7
20260508121608 49 0 0.0 1.0 0.00 0.08 0.07 63 1018.7
20260508120337 49 0 0.0 6.0 0.00 0.08 0.07 66 1018.6
20260508115836 48 0 0.0 6.0 0.00 0.08 0.07 65 1018.4
20260508113958 47 0 0.0 0.0 0.00 0.08 0.07 67 1018.2
20260508113458 47 0 0.0 0.0 0.00 0.08 0.07 70 1018.1
20260508112958 47 0 0.0 3.0 0.00 0.08 0.07 68 1018.1
20260508112458 46 0 0.0 6.0 0.00 0.08 0.07 67 1018.0
20260508111958 46 0 0.0 9.0 0.00 0.08 0.07 69 1018.0
20260508111459 46 328 1.0 9.0 0.00 0.08 0.07 68 1017.8
20260508110958 46 328 2.0 13.0 0.00 0.08 0.07 68 1017.7
20260508110458 46 328 4.0 13.0 0.00 0.08 0.07 67 1017.6
20260508105958 46 328 3.0 12.0 0.00 0.08 0.07 67 1017.5
20260508105458 46 0 0.0 15.0 0.00 0.08 0.07 67 1017.5
20260508104958 46 328 1.0 15.0 0.00 0.08 0.07 67 1017.4
20260508104458 45 328 3.0 9.0 0.00 0.08 0.07 67 1017.3
20260508103958 45 329 3.0 9.0 0.00 0.08 0.07 67 1017.2
20260508103458 45 329 3.0 9.0 0.00 0.08 0.07 68 1017.2
20260508103000 45 330 3.0 9.0 0.00 0.08 0.07 68 1017.1
20260508102458 45 0 0.0 10.0 0.00 0.08 0.07 67 1017.0
20260508101959 45 0 0.0 26.0 0.00 0.08 0.07 68 1017.0
20260508101458 45 330 4.0 26.0 0.00 0.08 0.07 67 1016.9
20260508100737 46 329 7.0 16.0 0.00 0.08 0.07 68 1016.9
20260508100237 45 334 7.0 13.0 0.00 0.08 0.07 69 1016.7
20260508095739 45 333 4.0 12.0 0.00 0.08 0.07 71 1016.7
20260508095421 45 334 2.0 15.0 0.00 0.08 0.07 71 1016.5
20260508095237 45 334 1.0 12.0 0.00 0.08 0.07 70 1016.6
20260508094738 45 334 2.0 15.0 0.00 0.08 0.07 71 1016.5
20260508094237 45 331 5.0 16.0 0.00 0.08 0.07 71 1016.5
20260508093737 45 332 3.0 16.0 0.00 0.08 0.07 71 1016.4
20260508093237 45 331 8.0 14.0 0.00 0.08 0.07 72 1016.3
20260508092737 46 330 4.0 10.0 0.00 0.08 0.07 71 1016.2
20260508092551 45 327 3.0 10.0 0.00 0.08 0.07 73 1016.2
20260508092237 46 330 1.0 8.0 0.00 0.08 0.07 70 1016.3
20260508091237 45 331 1.0 13.0 0.00 0.08 0.07 72 1016.2
20260508090736 45 331 2.0 12.0 0.00 0.08 0.07 73 1016.1
20260508090236 45 327 3.0 10.0 0.00 0.08 0.07 73 1016.2
20260508085736 46 0 0.0 12.0 0.00 0.08 0.07 73 1016.2
20260508085236 46 0 0.0 13.0 0.00 0.08 0.07 73 1016.1
20260508084736 46 325 2.0 17.0 0.00 0.08 0.07 72 1016.0
20260508084236 46 323 5.0 17.0 0.00 0.08 0.07 72 1016.1
20260508083736 46 323 3.0 16.0 0.00 0.08 0.07 71 1016.1
20260508083236 46 323 7.0 16.0 0.00 0.08 0.07 72 1015.9
20260508082736 46 323 6.0 11.0 0.00 0.08 0.07 73 1015.8
20260508082238 46 324 2.0 10.0 0.00 0.08 0.07 73 1015.8
20260508081736 46 326 1.0 13.0 0.00 0.08 0.07 74 1015.8
20260508081237 47 326 2.0 13.0 0.00 0.08 0.07 73 1015.7
20260508081157 47 0 0.0 5.0 0.00 0.08 0.07 74 1015.5
20260508080500 47 328 4.0 18.0 0.00 0.08 0.07 73 1015.5
20260508080000 47 328 1.0 11.0 0.00 0.08 0.07 74 1015.6
20260508075500 47 328 1.0 11.0 0.00 0.08 0.07 74 1015.5
20260508075000 47 328 1.0 6.0 0.00 0.08 0.07 75 1015.5
20260508074500 47 0 0.0 5.0 0.00 0.08 0.07 74 1015.5
20260508073627 48 327 3.0 12.0 0.00 0.08 0.07 76 1015.2
20260508073557 47 327 2.0 11.0 0.00 0.08 0.07 75 1015.4
20260508073057 47 326 1.0 11.0 0.00 0.08 0.07 75 1015.3
20260508072559 47 323 3.0 11.0 0.00 0.08 0.07 74 1015.3
20260508072057 47 326 3.0 11.0 0.00 0.08 0.07 75 1015.2
20260508071558 48 327 3.0 12.0 0.00 0.08 0.07 76 1015.2
20260508071101 48 328 2.0 12.0 0.00 0.08 0.07 75 1015.2
20260508070557 48 326 5.0 12.0 0.00 0.08 0.07 76 1015.2
20260508070057 48 325 4.0 12.0 0.00 0.08 0.07 75 1015.1
20260508065558 48 327 3.0 17.0 0.00 0.08 0.07 76 1015.1
20260508065057 48 316 6.0 17.0 0.00 0.08 0.07 75 1015.1
20260508064255 49 319 4.0 10.0 0.00 0.08 0.07 74 1015.4
20260508063755 49 329 1.0 9.0 0.00 0.08 0.07 74 1015.4
20260508063256 49 340 1.0 10.0 0.00 0.08 0.07 74 1015.3
20260508062754 49 326 2.0 10.0 0.00 0.08 0.07 75 1015.1
20260508062301 49 0 0.0 8.0 0.00 0.08 0.07 76 1015.3
20260508061754 49 355 3.0 12.0 0.00 0.08 0.07 76 1015.3
20260508061254 49 356 3.0 12.0 0.00 0.08 0.07 76 1016.2
20260508060754 49 325 3.0 10.0 0.00 0.08 0.07 76 1016.2
20260508060256 49 353 3.0 10.0 0.00 0.08 0.07 76 1016.1
20260508055433 49 323 5.0 17.0 0.00 0.08 0.07 76 1016.2
20260508054931 49 345 7.0 17.0 0.00 0.08 0.07 77 1016.1
20260508054432 49 335 5.0 11.0 0.00 0.08 0.07 75 1016.0
20260508053931 49 334 4.0 9.0 0.00 0.08 0.07 77 1016.1
20260508053432 49 318 4.0 9.0 0.00 0.08 0.07 77 1016.1
20260508052739 49 326 4.0 10.0 0.00 0.08 0.07 78 1016.1
20260508051853 49 327 3.0 9.0 0.00 0.08 0.07 78 1016.1